EHI
0 0 1 1 1 1 1 0 0 0 0 0 0 0 0 0 0 0 0 0 0 0 0 0 1 2 3 4 4 3 3 2 1 0 1 2 2 2 1 1 1 0 1
0 0 1 1 1 1 0 0 0 0 0 0 0 0 0 0 1 1 1 0 0 0 0 1 2 2 3 4 3 3 2 2 1 0 0 1 2 2 2 1 1 1 1
0 0 0 0 0 0 0 0 0 0 0 0 0 0 0 1 2 2 1 0 1 1 1 1 2 2 2 3 2 1 1 1 0 0 0 0 1 2 2 2 1 1 1
0 0 0 0 0 0 0 0 0 0 0 1 1 0 0 1 2 1 1 0 1 1 1 1 2 1 1 1 1 0 0 0 0 0 0 0 0 1 1 2 1 0 0
0 0 0 0 0 0 0 0 0 0 0 1 1 0 0 0 0 0 0 0 0 0 0 1 1 0 0 0 0 0 0 1 1 0 0 0 0 0 0 0 0 0 0
0 0 0 0 0 0 0 0 0 0 0 1 1 0 0 0 0 0 0 0 0 0 0 0 0 0 0 0 0 0 1 2 1 0 0 0 0 0 0 0 0 0 0
0 0 0 0 0 0 0 0 0 0 0 0 0 0 0 0 0 0 0 0 0 0 0 0 0 0 0 0 0 0 1 1 1 0 0 0 0 0 0 0 0 0 0
0 0 0 0 0 0 0 0 0 0 0 0 0 0 0 0 0 0 0 0 0 0 0 0 0 0 0 0 0 0 0 0 0 0 0 0 0 0 0 0 0 0 0
0 0 0 0 0 0 0 0 0 0 0 0 0 0 0 0 0 0 0 0 0 0 0 0 0 0 0 0 0 0 0 0 0 0 0 0 0 0 0 0 0 0 0
0 0 0 0 0 0 0 1 0 0 0 0 0 0 0 0 0 0 0 0 0 0 0 0 0 0 0 0 0 0 0 0 0 0 0 0 0 0 0 0 0 0 0
0 0 0 0 0 0 0 0 0 0 0 0 0 0 0 0 0 0 0 0 0 0 0 0 0 0 0 0 0 0 0 0 0 0 0 0 0 0 0 0 0 0 0
0 0 0 0 0 0 0 0 0 0 0 0 0 0 0 0 0 0 0 0 1 0 0 0 0 0 0 0 0 0 0 0 0 0 0 0 0 0 0 0 0 0 0
0 0 0 0 0 0 0 0 0 0 0 0 0 0 0 0 0 0 0 0 0 0 0 0 0 0 0 0 0 0 0 0 0 0 0 0 0 0 0 0 0 0 0
0 0 0 0 0 0 0 0 0 0 0 0 0 0 0 0 0 0 0 0 0 0 0 0 0 0 0 0 0 0 0 0 0 0 0 0 0 0 0 0 0 0 0
0 0 0 0 0 0 0 0 0 0 0 0 0 0 0 0 0 0 0 0 0 0 0 0 0 0 0 0 0 0 0 0 0 0 0 0 0 0 0 0 0 0 0
0 0 0 0 0 0 0 0 0 0 0 0 0 0 0 0 0 0 0 0 0 0 0 0 0 0 0 0 0 0 0 0 0 0 0 0 0 0 0 0 0 1 1
0 0 0 0 0 0 0 0 0 0 0 0 0 0 0 0 0 0 0 0 0 0 0 0 0 0 0 0 0 0 0 0 0 0 0 0 0 0 0 0 0 0 0
0 0 0 0 0 0 0 0 0 0 0 0 0 0 0 0 0 0 0 0 0 0 0 0 0 0 0 0 0 0 0 0 0 0 0 0 0 0 0 0 0 0 0
0 0 0 0 0 0 0 0 0 0 0 0 0 0 0 0 0 0 0 0 0 0 0 0 0 0 0 0 0 0 0 0 0 0 0 0 0 0 0 0 0 0 0
0 0 0 0 0 1 1 1 1 1 1 1 1 1 1 1 0 0 0 0 0 0 0 0 0 0 0 0 0 0 0 0 0 0 0 0 0 0 0 0 0 0 0
0 0 0 0 1 2 3 3 3 3 3 3 2 2 2 2 1 1 1 0 0 0 0 0 0 0 0 0 0 0 0 0 0 0 0 0 0 0 0 0 0 0 0
0 0 0 0 2 4 5 4 4 4 4 3 3 3 3 3 3 2 2 1 0 0 0 0 0 0 0 0 0 0 0 0 0 0 0 0 0 0 0 0 0 0 0
1 0 0 0 2 4 4 3 3 4 3 3 3 3 3 3 3 3 3 2 1 0 0 0 0 0 0 0 0 0 0 0 0 0 0 0 0 0 0 0 0 0 0
2 1 0 0 1 3 3 3 3 3 3 3 3 3 3 3 3 3 3 3 2 1 0 0 0 0 0 0 0 0 0 0 0 0 0 0 0 0 0 0 0 0 0
2 2 1 0 1 2 2 2 3 3 3 3 3 3 3 3 3 3 3 3 2 1 0 0 0 0 0 0 0 0 0 0 0 0 0 0 0 0 0 0 0 0 0
1 1 1 1 0 1 1 1 2 3 3 3 3 3 3 3 3 3 3 3 1 0 0 0 0 0 0 0 0 0 0 0 0 0 0 0 0 0 0 0 0 0 0
Wind_Speed
3 4 5 4 4 4 4 4 5 5 6 6 6 6 6 6 6 6 6 5 5 5 6 6 6 6 6 6 5 6 6 6 6 6 6 5 5 5 5 5 4 5 7
3 4 4 4 4 4 4 5 5 6 6 7 7 7 6 6 6 5 5 5 5 5 6 6 6 6 7 6 6 6 5 5 6 6 6 6 6 5 5 4 3 4 6
3 3 4 5 5 5 5 6 6 7 7 7 8 7 7 6 6 6 5 5 5 5 6 6 7 7 7 7 6 5 5 6 6 5 4 4 6 6 5 4 6 6 5
4 4 6 6 6 6 6 6 6 7 7 8 8 7 7 7 7 7 6 6 5 6 6 7 7 7 7 7 6 4 5 6 6 4 3 3 3 7 5 4 5 5 5
5 5 7 6 6 6 7 7 7 7 7 8 8 8 8 8 8 8 8 8 7 7 7 8 8 7 7 7 6 6 5 6 5 2 3 3 3 6 5 5 4 4 4
5 5 8 6 7 7 7 7 7 7 8 8 8 8 8 8 8 9 8 8 8 8 8 8 8 8 8 7 7 7 7 5 2 3 2 2 3 7 5 5 4 4 4
5 5 7 7 7 8 7 7 7 8 9 9 9 9 9 9 9 8 8 8 8 8 8 8 8 8 8 8 8 8 7 5 3 3 3 3 5 6 5 5 4 4 4
5 5 7 8 7 8 8 8 8 9 9 10 10 10 10 9 9 9 9 8 8 8 8 7 7 8 8 8 8 8 6 3 4 4 4 4 6 5 5 5 4 4 4
5 5 5 6 7 8 8 9 9 9 10 10 11 10 10 10 10 9 8 8 8 8 8 7 7 8 8 8 8 7 6 4 3 3 4 4 7 5 5 4 4 5 5
5 5 5 5 5 6 7 9 8 9 9 10 10 9 8 8 8 7 7 8 8 8 8 8 8 9 9 9 8 7 4 1 4 4 3 6 7 5 5 5 5 6 6
4 4 4 4 5 5 6 7 6 6 7 5 7 6 2 4 6 6 9 9 9 9 9 9 9 9 8 9 8 5 1 3 5 4 4 8 6 6 6 6 6 6 6
4 4 4 4 5 5 4 4 3 4 5 4 4 4 4 5 5 6 9 9 9 9 9 9 7 5 2 4 5 1 2 4 4 4 6 9 8 8 8 8 7 7 6
4 4 4 4 4 4 4 3 3 3 3 4 5 4 4 4 3 4 4 6 6 5 5 6 3 4 4 4 3 4 5 4 4 4 7 8 7 7 7 7 7 6 6
4 4 4 3 4 4 4 3 2 3 3 3 4 5 3 3 3 4 3 4 4 3 4 4 3 5 5 5 5 5 6 4 4 4 6 8 8 8 8 8 8 7 5
4 4 4 3 3 4 4 2 2 3 3 4 3 3 4 3 3 4 4 3 4 3 3 3 4 5 5 5 5 5 5 5 5 4 5 9 9 8 8 8 8 7 6
4 4 4 3 3 3 3 2 3 3 3 3 3 3 4 3 3 3 4 4 4 3 3 3 4 4 4 4 5 5 5 5 5 4 4 6 8 8 8 7 7 7 7
4 4 4 3 3 3 3 2 2 1 2 2 2 3 4 3 3 3 3 3 3 3 3 3 4 3 3 3 4 5 5 4 4 4 4 3 4 7 7 7 6 6 6
4 4 5 3 3 3 2 2 2 2 2 2 2 2 3 3 3 3 2 2 3 2 2 2 2 2 3 3 3 3 3 3 4 4 4 3 3 3 5 6 6 6 5
4 4 5 5 4 3 3 2 2 2 2 1 1 2 2 3 3 3 2 2 2 2 2 2 2 2 2 2 2 2 2 2 3 3 4 4 3 3 3 4 4 5 5
5 4 5 5 4 4 3 2 2 2 1 1 1 1 2 2 2 2 1 1 2 1 1 2 2 2 1 1 2 2 2 2 2 2 2 2 3 3 3 3 1 3 3
6 5 5 5 4 3 2 2 1 1 1 1 1 2 2 1 2 2 1 1 1 1 1 1 1 2 1 1 1 1 2 1 2 1 1 2 2 3 2 2 2 2 1
6 5 5 4 4 4 2 1 1 1 1 2 1 1 1 1 1 1 1 1 1 1 1 1 1 0 1 0 1 0 1 2 1 1 1 1 1 1 2 2 3 2 2
6 5 4 4 4 4 3 2 2 2 1 2 1 1 0 1 1 0 0 0 1 1 1 0 1 1 1 1 1 2 1 1 1 1 1 0 1 1 1 2 2 2 2
5 4 4 5 5 4 4 3 3 2 1 1 1 1 1 1 1 1 1 1 1 0 1 1 1 1 1 1 1 1 2 2 1 0 1 1 1 1 1 1 2 2 3
4 4 4 4 4 4 4 4 3 2 1 1 1 1 1 1 1 1 1 1 1 1 1 1 1 2 2 1 1 0 0 1 3 2 1 1 0 0 1 1 1 2 3
4 4 4 4 4 4 4 4 4 3 3 2 2 1 1 1 1 1 2 2 2 2 2 2 2 2 2 2 2 1 1 1 2 1 2 1 1 0 0 1 1 2 2
Wind_Direction
30 28 46 6 25 34 44 53 59 60 65 71 77 75 72 69 71 75 82 89 90 89 92 95 95 99 102 101 104 111 116 125 127 127 121 121 122 122 121 123 142 132 115
32 38 55 23 39 53 65 65 65 64 66 70 76 75 74 73 70 70 75 85 87 87 87 89 93 96 100 99 95 99 108 118 123 124 128 137 126 118 120 123 109 98 111
44 49 79 59 55 65 66 67 68 66 67 69 71 70 70 73 73 71 71 80 83 84 88 89 91 91 93 92 89 91 98 103 111 124 159 155 130 122 117 117 112 113 117
55 57 61 60 58 61 64 67 70 68 68 68 68 65 64 68 70 72 73 74 81 85 89 92 89 86 86 84 84 90 107 102 108 152 176 123 125 114 115 114 116 117 123
66 64 70 52 59 63 64 68 69 69 71 71 67 64 62 66 67 70 71 68 70 77 83 88 88 87 86 83 74 75 103 101 111 171 101 94 95 103 105 104 110 116 121
74 70 75 54 58 64 67 69 70 71 73 74 71 67 66 66 67 67 65 67 68 71 74 79 85 86 83 81 77 75 89 91 129 89 85 103 104 100 103 103 106 113 118
75 70 78 62 57 59 65 71 73 73 74 75 73 68 68 69 70 71 68 69 73 76 74 74 79 81 78 76 75 74 77 73 72 78 80 85 84 87 94 91 93 106 113
79 78 87 84 67 62 63 70 73 73 73 73 71 68 68 69 70 69 67 68 74 77 72 72 77 78 76 76 76 74 65 23 84 78 75 78 79 90 95 94 92 94 90
88 83 80 90 97 91 80 75 73 71 71 72 70 70 70 69 67 68 70 69 77 80 77 74 75 73 75 77 80 79 69 35 62 74 77 76 79 83 91 95 95 93 86
93 86 86 82 80 91 98 86 75 71 71 73 72 69 73 85 82 77 82 76 83 85 79 77 74 74 77 76 76 73 68 46 67 71 68 77 75 74 82 91 90 89 88
100 92 94 91 86 83 84 92 95 93 81 94 98 92 89 76 77 89 71 75 79 81 80 80 79 80 87 87 77 75 91 64 69 60 61 67 69 72 78 86 89 94 95
116 102 94 95 94 90 85 92 82 79 78 60 64 73 65 62 63 75 95 88 87 88 90 83 85 103 102 92 97 115 65 66 66 66 67 64 65 71 77 80 83 87 89
112 108 101 99 96 91 93 80 73 69 71 66 60 72 72 73 86 83 96 113 106 105 90 99 105 74 74 68 58 64 56 50 56 58 63 57 57 65 73 79 80 80 80
125 117 111 110 108 100 93 89 85 79 70 66 62 64 68 69 66 71 73 75 79 76 70 66 62 71 71 75 69 66 65 56 57 63 63 54 53 58 67 71 72 74 77
135 132 117 119 112 106 93 90 92 78 64 71 57 55 66 66 70 77 78 76 72 71 74 69 67 66 61 60 59 57 59 61 63 62 70 61 55 56 61 64 67 68 73
149 136 128 133 126 126 126 115 86 86 91 71 67 66 69 71 72 67 71 71 70 67 62 71 74 70 65 61 58 57 55 59 62 64 69 75 63 53 53 57 60 62 66
152 142 132 136 137 137 115 95 93 92 82 76 77 75 78 67 67 73 69 76 75 80 80 66 72 67 71 74 71 59 54 48 55 60 62 59 77 71 55 49 51 55 56
165 150 140 144 149 132 120 122 107 104 88 77 79 69 78 74 61 64 63 71 77 73 76 79 72 78 77 68 67 64 65 59 50 50 59 60 51 63 76 55 45 47 49
176 166 151 148 152 139 138 132 114 107 98 72 73 65 57 64 65 77 62 54 77 81 76 74 70 68 75 69 76 72 63 59 53 52 55 51 54 46 60 82 65 46 39
180 179 161 150 160 139 146 140 129 115 102 78 51 59 53 46 55 75 94 91 79 85 79 87 83 71 66 74 79 73 58 61 54 51 44 48 40 40 38 40 66 88 57
177 183 171 167 161 150 154 170 159 140 127 109 66 49 70 55 55 74 53 59 58 80 85 104 103 119 109 69 114 107 108 104 68 63 40 40 49 38 40 36 25 23 89
172 183 183 173 164 159 158 164 151 124 119 82 80 88 104 99 79 74 78 87 96 84 87 90 140 171 134 204 279 231 162 150 124 70 63 33 33 46 34 28 33 28 4
175 181 182 174 168 164 160 159 145 133 169 159 152 116 100 105 102 119 58 39 95 135 105 152 196 201 179 159 332 320 308 48 97 150 86 63 42 24 31 23 18 17 9
177 178 184 176 176 164 162 178 185 188 189 188 172 152 165 165 158 177 196 227 195 163 160 198 206 244 242 215 144 313 327 359 279 188 169 102 48 17 18 18 5 12 16
162 168 183 176 173 165 177 179 206 204 204 185 177 172 186 162 190 191 216 218 214 198 199 203 223 264 255 260 240 225 316 285 279 278 265 267 172 68 27 6 2 9 19
159 162 173 180 176 173 189 197 207 201 203 194 198 196 202 177 200 196 223 228 223 219 211 217 215 230 258 260 258 245 243 265 277 277 276 275 295 8 7 8 351 11 7